contact:dominique.lefevre@mio.osupytheas.fr, maurice.libes@osupytheas.fr, didier.mallarino@osupytheas.fr
Project:EMSO http://www.emso-fr.org/EMSO-France
Depth: 2436.0 m
Title:EMSO Ligure Ouest : Data MII capteur AQUADOPP
Date,Latitude,Longitude,X_East,Y_North,Z_Up,Amplitude_X,Amplitude_Y,Amplitude_Z,Batterie,SoundSpeed,Heading,Pitch,Roll,Pressure,TIS,Speed,Direction
, degrees North, degrees East, m.s-1, m.s-1,m.s-1, 1, 1, 1, Volt, m.s-1, degree, degree, degree, dbar, degree_C, m.s-1, degree
2021-03-16T00:04:03,42.805,6.029,0.068,-0.023,0.025,106.0,105.0,103.0,13.3,1505.2,327.2,-0.7,1.8,2470.111,13.28,0.071,108.7
2021-03-16T00:07:03,42.805,6.029,0.058,-0.028,0.019,105.0,106.0,103.0,13.4,1505.2,327.6,-0.8,1.8,2470.134,13.28,0.064,115.8
2021-03-16T00:10:03,42.805,6.029,0.064,-0.036,0.029,105.0,105.0,104.0,13.4,1505.2,327.4,-0.7,1.8,2470.19,13.28,0.073,119.4
2021-03-16T00:13:03,42.805,6.029,0.042,-0.03,0.031,107.0,107.0,102.0,13.4,1505.2,327.1,-0.8,1.8,2470.132,13.28,0.051,125.5
2021-03-16T00:16:03,42.805,6.029,0.06,-0.035,-0.009,105.0,106.0,103.0,13.3,1505.2,327.3,-0.8,1.9,2470.122,13.28,0.069,120.3
2021-03-16T00:19:03,42.805,6.029,0.053,-0.02,-0.01,106.0,106.0,103.0,13.3,1505.2,327.5,-0.7,1.8,2470.136,13.28,0.056,110.7
2021-03-16T00:22:03,42.805,6.029,0.08,-0.04,0.005,106.0,106.0,102.0,13.4,1505.2,327.1,-0.8,1.8,2470.175,13.28,0.089,116.6
2021-03-16T00:25:03,42.805,6.029,0.049,-0.003,0.025,106.0,105.0,103.0,13.4,1505.2,327.4,-0.8,1.8,2470.195,13.28,0.049,93.5
2021-03-16T00:28:03,42.805,6.029,0.064,-0.017,0.01,106.0,107.0,102.0,13.3,1505.2,327.4,-0.8,1.8,2470.223,13.28,0.066,104.9
2021-03-16T00:31:03,42.805,6.029,0.074,-0.041,0.016,107.0,108.0,105.0,13.4,1505.2,327.1,-0.8,1.9,2470.226,13.28,0.084,119.0
2021-03-16T00:34:03,42.805,6.029,0.08,-0.008,0.025,106.0,106.0,103.0,13.3,1505.2,327.0,-0.7,1.8,2470.214,13.28,0.08,95.7
2021-03-16T00:37:03,42.805,6.029,0.072,-0.018,0.024,107.0,106.0,103.0,13.4,1505.2,327.4,-0.8,1.8,2470.266,13.28,0.074,104.0
2021-03-16T00:40:03,42.805,6.029,0.061,-0.01,0.04,107.0,107.0,103.0,13.4,1505.2,327.5,-0.7,1.8,2470.286,13.28,0.061,99.3
2021-03-16T00:43:03,42.805,6.029,0.073,-0.017,0.031,105.0,105.0,103.0,13.4,1505.2,327.1,-0.8,1.8,2470.235,13.28,0.074,103.1
2021-03-16T00:46:03,42.805,6.029,0.052,0.001,-0.002,107.0,106.0,103.0,13.4,1505.2,327.5,-0.8,1.8,2470.271,13.28,0.052,88.9
2021-03-16T00:49:03,42.805,6.029,0.051,-0.028,0.004,106.0,106.0,102.0,13.4,1505.2,327.3,-0.7,1.8,2470.305,13.28,0.058,118.8
2021-03-16T00:52:03,42.805,6.029,0.029,-0.037,0.007,107.0,107.0,102.0,13.4,1505.2,327.0,-0.8,1.8,2470.277,13.28,0.047,141.9
2021-03-16T00:55:03,42.805,6.029,0.064,-0.023,0.031,107.0,106.0,103.0,13.4,1505.2,327.7,-0.7,1.8,2470.319,13.28,0.068,109.8
2021-03-16T00:58:03,42.805,6.029,0.06,-0.026,0.007,106.0,107.0,102.0,13.3,1505.2,327.4,-0.7,1.8,2470.349,13.28,0.065,113.4
2021-03-16T01:04:03,42.805,6.029,0.054,-0.04,-0.006,106.0,105.0,104.0,13.4,1505.2,327.2,-0.7,1.8,2470.699,13.28,0.067,126.5
2021-03-16T01:07:03,42.805,6.029,0.063,-0.015,0.005,106.0,107.0,103.0,13.4,1505.2,327.7,-0.7,1.8,2471.107,13.28,0.064,103.4
2021-03-16T01:10:03,42.805,6.029,0.057,-0.026,0.038,106.0,107.0,104.0,13.4,1505.2,327.7,-0.7,1.8,2471.084,13.28,0.062,114.5
2021-03-16T01:13:03,42.805,6.029,0.071,-0.022,0.013,106.0,106.0,103.0,13.4,1505.2,327.6,-0.8,1.8,2470.739,13.28,0.074,107.2
2021-03-16T01:16:03,42.805,6.029,0.072,-0.025,0.031,108.0,107.0,102.0,13.4,1505.2,327.1,-0.8,1.8,2470.192,13.28,0.076,109.1
2021-03-16T01:19:03,42.805,6.029,0.05,0.007,0.024,106.0,107.0,103.0,13.3,1505.2,327.7,-0.8,1.8,2469.841,13.28,0.05,82.0
2021-03-16T01:22:03,42.805,6.029,0.058,-0.01,0.023,107.0,107.0,103.0,13.4,1505.2,327.7,-0.8,1.8,2469.766,13.28,0.058,99.8
2021-03-16T01:25:03,42.805,6.029,0.057,-0.018,0.021,106.0,105.0,103.0,13.4,1505.2,327.3,-0.7,1.8,2469.712,13.28,0.059,107.5
2021-03-16T01:28:03,42.805,6.029,0.076,-0.019,0.006,106.0,106.0,103.0,13.4,1505.2,327.0,-0.8,1.8,2469.729,13.28,0.078,104.0
2021-03-16T01:31:03,42.805,6.029,0.048,-0.018,0.025,105.0,106.0,103.0,13.3,1505.2,327.7,-0.7,1.8,2469.664,13.28,0.051,110.6
2021-03-16T01:34:03,42.805,6.029,0.056,-0.028,0.014,106.0,106.0,103.0,13.3,1505.2,327.0,-0.7,1.8,2469.733,13.28,0.062,116.6
2021-03-16T01:37:03,42.805,6.029,0.078,-0.032,0.016,107.0,106.0,104.0,13.3,1505.2,327.6,-0.7,1.9,2469.727,13.28,0.084,112.3
2021-03-16T01:40:03,42.805,6.029,0.05,-0.029,0.006,106.0,106.0,102.0,13.4,1505.2,327.6,-0.7,1.8,2469.759,13.28,0.057,120.1
2021-03-16T01:43:03,42.805,6.029,0.059,-0.024,0.0,105.0,106.0,104.0,13.4,1505.2,327.4,-0.8,1.8,2469.822,13.28,0.063,112.1
2021-03-16T01:46:03,42.805,6.029,0.048,-0.024,0.014,107.0,107.0,103.0,13.3,1505.2,327.0,-0.8,1.8,2469.627,13.28,0.053,116.6
2021-03-16T01:49:03,42.805,6.029,0.058,-0.031,-0.004,106.0,106.0,103.0,13.3,1505.2,327.2,-0.7,1.8,2469.604,13.28,0.065,118.1
2021-03-16T01:52:03,42.805,6.029,0.055,-0.024,0.007,106.0,106.0,103.0,13.3,1505.2,327.8,-0.7,1.8,2469.682,13.28,0.06,113.6
2021-03-16T01:55:03,42.805,6.029,0.052,-0.012,0.016,106.0,108.0,103.0,13.4,1505.2,327.0,-0.7,1.8,2469.711,13.28,0.053,103.0
2021-03-16T01:58:03,42.805,6.029,0.07,-0.034,0.023,105.0,107.0,103.0,13.3,1505.2,327.8,-0.7,1.9,2469.565,13.28,0.077,115.9
2021-03-16T02:04:03,42.805,6.029,0.047,-0.022,-0.017,106.0,107.0,102.0,13.4,1505.2,327.1,-0.7,1.8,2469.317,13.28,0.051,115.1
2021-03-16T02:07:03,42.805,6.029,0.06,-0.026,0.018,105.0,106.0,103.0,13.3,1505.2,326.5,-0.8,1.8,2469.297,13.28,0.065,113.4
2021-03-16T02:10:03,42.805,6.029,0.059,-0.021,-0.004,105.0,106.0,104.0,13.4,1505.2,327.4,-0.7,1.8,2469.303,13.28,0.062,109.6
2021-03-16T02:13:03,42.805,6.029,0.076,-0.007,0.02,107.0,107.0,103.0,13.4,1505.2,327.1,-0.8,1.8,2469.334,13.28,0.076,95.3
2021-03-16T02:16:03,42.805,6.029,0.062,-0.032,0.018,106.0,105.0,104.0,13.4,1505.2,327.2,-0.8,1.8,2469.39,13.28,0.069,117.3
2021-03-16T02:19:03,42.805,6.029,0.078,-0.022,0.007,106.0,105.0,101.0,13.3,1505.2,326.8,-0.8,1.8,2469.378,13.28,0.081,105.7
2021-03-16T02:22:03,42.805,6.029,0.075,-0.018,0.035,106.0,107.0,103.0,13.4,1505.2,326.8,-0.8,1.8,2469.407,13.28,0.077,103.5
2021-03-16T02:25:03,42.805,6.029,0.079,-0.039,-0.039,107.0,107.0,103.0,13.3,1505.2,327.6,-0.7,1.8,2469.39,13.28,0.088,116.3
2021-03-16T02:28:03,42.805,6.029,0.054,-0.025,0.022,107.0,106.0,103.0,13.4,1505.2,326.8,-0.8,1.8,2469.473,13.28,0.059,114.8
2021-03-16T02:31:03,42.805,6.029,0.051,-0.032,0.002,106.0,105.0,103.0,13.3,1505.2,327.1,-0.8,1.9,2469.677,13.28,0.06,122.1
2021-03-16T02:34:03,42.805,6.029,0.062,-0.004,0.039,106.0,105.0,104.0,13.3,1505.2,327.1,-0.7,1.8,2469.296,13.28,0.062,93.7
2021-03-16T02:37:03,42.805,6.029,0.068,-0.031,-0.012,105.0,105.0,103.0,13.3,1505.2,327.3,-0.7,1.8,2469.344,13.28,0.074,114.5
2021-03-16T02:40:03,42.805,6.029,0.065,-0.023,0.024,106.0,106.0,103.0,13.4,1505.2,326.8,-0.8,1.8,2469.322,13.28,0.068,109.5
2021-03-16T02:43:03,42.805,6.029,0.088,-0.035,0.02,105.0,105.0,105.0,13.4,1505.2,327.1,-0.8,1.8,2469.575,13.28,0.094,111.7
2021-03-16T02:46:03,42.805,6.029,0.06,-0.02,0.0,106.0,107.0,103.0,13.4,1505.2,327.5,-0.7,1.8,2469.268,13.28,0.063,108.4
2021-03-16T02:49:03,42.805,6.029,0.064,-0.013,0.025,107.0,106.0,104.0,13.4,1505.2,327.0,-0.8,1.9,2469.318,13.28,0.065,101.5
2021-03-16T02:52:03,42.805,6.029,0.063,-0.033,0.04,106.0,106.0,103.0,13.4,1505.2,327.0,-0.8,1.8,2469.248,13.28,0.071,117.6
2021-03-16T02:55:03,42.805,6.029,0.056,-0.04,0.02,107.0,106.0,103.0,13.3,1505.2,326.8,-0.8,1.8,2469.307,13.28,0.068,125.5
2021-03-16T02:58:03,42.805,6.029,0.069,-0.035,0.011,106.0,105.0,103.0,13.4,1505.2,327.7,-0.7,1.9,2469.371,13.28,0.077,116.9
2021-03-16T03:04:03,42.805,6.029,0.058,-0.028,0.0,106.0,105.0,103.0,13.4,1505.2,327.2,-0.8,1.8,2469.283,13.28,0.064,115.8
2021-03-16T03:07:03,42.805,6.029,0.057,-0.018,0.008,106.0,104.0,104.0,13.4,1505.2,327.1,-0.7,1.8,2469.415,13.28,0.059,107.5
2021-03-16T03:10:03,42.805,6.029,0.062,-0.023,0.01,105.0,108.0,104.0,13.4,1505.2,327.3,-0.8,1.8,2469.407,13.28,0.066,110.3
2021-03-16T03:13:03,42.805,6.029,0.072,-0.039,0.003,106.0,106.0,104.0,13.3,1505.2,327.1,-0.8,1.8,2469.4,13.28,0.081,118.4
2021-03-16T03:16:03,42.805,6.029,0.043,-0.038,-0.024,108.0,105.0,103.0,13.4,1505.2,327.2,-0.7,1.8,2469.379,13.28,0.057,131.5
2021-03-16T03:19:03,42.805,6.029,0.061,-0.023,-0.01,105.0,106.0,103.0,13.4,1505.2,327.5,-0.7,1.8,2469.409,13.28,0.065,110.7
2021-03-16T03:22:03,42.805,6.029,0.065,-0.008,0.02,105.0,108.0,103.0,13.4,1505.2,327.1,-0.8,1.8,2469.439,13.28,0.065,97.0
2021-03-16T03:25:03,42.805,6.029,0.066,-0.016,0.003,107.0,106.0,104.0,13.4,1505.2,327.5,-0.7,1.8,2469.433,13.28,0.067,103.6
2021-03-16T03:28:03,42.805,6.029,0.047,-0.017,0.011,107.0,108.0,104.0,13.4,1505.2,327.1,-0.8,1.8,2469.445,13.28,0.049,109.9
2021-03-16T03:31:03,42.805,6.029,0.066,-0.029,0.013,106.0,107.0,103.0,13.4,1505.2,327.4,-0.8,1.8,2469.503,13.28,0.072,113.7
2021-03-16T03:34:03,42.805,6.029,0.036,-0.022,0.032,106.0,108.0,103.0,13.4,1505.2,327.8,-0.7,1.8,2469.462,13.28,0.042,121.4
2021-03-16T03:37:03,42.805,6.029,0.054,-0.021,0.011,107.0,106.0,103.0,13.4,1505.2,327.4,-0.8,1.8,2469.539,13.28,0.057,111.2
2021-03-16T03:40:03,42.805,6.029,0.048,-0.007,0.031,105.0,106.0,104.0,13.4,1505.2,327.3,-0.8,1.9,2469.496,13.28,0.048,98.3
2021-03-16T03:43:03,42.805,6.029,0.064,-0.039,0.0,106.0,107.0,103.0,13.4,1505.2,326.8,-0.7,1.8,2469.5,13.28,0.074,121.4
2021-03-16T03:46:03,42.805,6.029,0.074,-0.023,0.024,105.0,108.0,103.0,13.3,1505.2,327.3,-0.8,1.8,2469.488,13.28,0.077,107.3
2021-03-16T03:49:03,42.805,6.029,0.072,-0.024,0.014,106.0,107.0,104.0,13.3,1505.2,327.1,-0.7,1.8,2469.438,13.28,0.075,108.4
2021-03-16T03:52:03,42.805,6.029,0.051,-0.043,0.003,106.0,105.0,103.0,13.4,1505.2,327.3,-0.7,1.8,2469.42,13.28,0.066,130.1
2021-03-16T03:55:03,42.805,6.029,0.051,-0.024,0.013,105.0,107.0,105.0,13.3,1505.2,327.3,-0.8,1.8,2469.512,13.28,0.056,115.2
2021-03-16T03:58:03,42.805,6.029,0.037,-0.027,0.015,107.0,108.0,104.0,13.4,1505.2,327.1,-0.8,1.8,2469.584,13.28,0.045,126.1
2021-03-16T04:04:03,42.805,6.029,0.074,-0.048,-0.014,106.0,106.0,104.0,13.4,1505.2,327.6,-0.7,1.8,2469.743,13.28,0.088,123.0
2021-03-16T04:07:03,42.805,6.029,0.055,-0.03,0.018,106.0,105.0,103.0,13.3,1505.2,327.3,-0.8,1.8,2469.737,13.28,0.062,118.6
2021-03-16T04:10:03,42.805,6.029,0.061,-0.021,-0.004,106.0,107.0,104.0,13.3,1505.2,327.6,-0.7,1.8,2469.775,13.28,0.064,109.0
2021-03-16T04:13:03,42.805,6.029,0.078,-0.032,0.028,106.0,105.0,103.0,13.4,1505.2,327.7,-0.8,1.9,2469.809,13.28,0.084,112.3
2021-03-16T04:16:03,42.805,6.029,0.06,-0.033,0.003,106.0,105.0,103.0,13.3,1505.2,326.7,-0.8,1.8,2469.832,13.28,0.068,118.8
2021-03-16T04:19:03,42.805,6.029,0.057,-0.04,0.015,106.0,106.0,103.0,13.4,1505.2,327.7,-0.7,1.8,2469.943,13.28,0.069,125.1
2021-03-16T04:22:03,42.805,6.029,0.05,-0.033,0.025,105.0,108.0,103.0,13.4,1505.2,327.0,-0.8,1.8,2469.943,13.28,0.059,123.4
2021-03-16T04:25:03,42.805,6.029,0.054,-0.031,-0.005,106.0,106.0,103.0,13.4,1505.2,327.2,-0.7,1.8,2469.963,13.28,0.062,119.9
2021-03-16T04:28:03,42.805,6.029,0.058,-0.043,-0.014,106.0,106.0,103.0,13.4,1505.2,327.5,-0.7,1.8,2469.987,13.28,0.072,126.6
2021-03-16T04:31:03,42.805,6.029,0.043,-0.023,-0.001,106.0,105.0,104.0,13.3,1505.2,327.5,-0.7,1.9,2470.032,13.28,0.048,118.1
2021-03-16T04:34:03,42.805,6.029,0.056,-0.035,-0.01,107.0,106.0,104.0,13.4,1505.2,327.1,-0.8,1.8,2469.993,13.28,0.066,122.0
2021-03-16T04:37:03,42.805,6.029,0.06,-0.005,0.019,107.0,107.0,103.0,13.4,1505.2,327.1,-0.8,1.8,2470.067,13.28,0.06,94.8
2021-03-16T04:40:03,42.805,6.029,0.058,-0.026,0.04,107.0,105.0,104.0,13.4,1505.2,327.1,-0.7,1.8,2470.096,13.28,0.063,114.1
2021-03-16T04:43:03,42.805,6.029,0.077,-0.02,0.018,106.0,107.0,104.0,13.4,1505.2,327.3,-0.8,1.8,2470.1,13.28,0.079,104.6
2021-03-16T04:46:03,42.805,6.029,0.056,-0.016,-0.008,106.0,105.0,103.0,13.4,1505.2,327.0,-0.7,1.8,2470.125,13.28,0.058,105.9
2021-03-16T04:49:03,42.805,6.029,0.044,-0.026,0.003,106.0,106.0,104.0,13.4,1505.2,327.2,-0.8,1.8,2470.14,13.28,0.051,120.6
2021-03-16T04:52:03,42.805,6.029,0.047,-0.041,0.023,107.0,105.0,103.0,13.4,1505.2,327.1,-0.8,1.8,2470.157,13.28,0.062,131.1
2021-03-16T04:55:03,42.805,6.029,0.06,-0.012,-0.001,106.0,106.0,103.0,13.3,1505.2,327.4,-0.8,1.8,2470.128,13.28,0.061,101.3
2021-03-16T04:58:03,42.805,6.029,0.067,-0.019,0.035,106.0,105.0,103.0,13.3,1505.2,326.8,-0.8,1.8,2470.103,13.28,0.069,105.8
2021-03-16T05:04:03,42.805,6.029,0.065,-0.038,0.011,106.0,106.0,103.0,13.4,1505.2,327.6,-0.8,1.9,2470.153,13.28,0.075,120.3
2021-03-16T05:07:03,42.805,6.029,0.076,-0.017,0.006,106.0,105.0,103.0,13.3,1505.2,327.3,-0.8,1.8,2470.129,13.28,0.077,102.6
2021-03-16T05:10:03,42.805,6.029,0.059,-0.013,0.008,107.0,107.0,103.0,13.4,1505.2,327.2,-0.8,1.8,2470.103,13.28,0.06,102.4
2021-03-16T05:13:03,42.805,6.029,0.053,-0.034,0.017,106.0,106.0,104.0,13.4,1505.2,327.7,-0.7,1.8,2470.076,13.28,0.062,122.7
2021-03-16T05:16:03,42.805,6.029,0.059,-0.031,0.021,106.0,105.0,104.0,13.4,1505.2,327.8,-0.8,1.8,2470.113,13.28,0.066,117.7
2021-03-16T05:19:03,42.805,6.029,0.067,-0.027,-0.025,107.0,106.0,103.0,13.3,1505.2,327.5,-0.7,1.8,2470.076,13.28,0.072,111.9
2021-03-16T05:22:03,42.805,6.029,0.087,-0.04,0.012,106.0,107.0,103.0,13.4,1505.2,327.2,-0.8,1.8,2470.083,13.28,0.095,114.7
2021-03-16T05:25:03,42.805,6.029,0.057,-0.033,0.005,106.0,106.0,104.0,13.4,1505.2,327.5,-0.8,1.8,2470.12,13.28,0.065,120.1
2021-03-16T05:28:03,42.805,6.029,0.049,-0.024,0.009,105.0,106.0,104.0,13.4,1505.2,327.6,-0.8,1.9,2470.093,13.28,0.054,116.1
2021-03-16T05:31:03,42.805,6.029,0.061,-0.018,0.021,106.0,106.0,103.0,13.4,1505.2,327.0,-0.7,1.8,2470.065,13.28,0.063,106.4
2021-03-16T05:34:03,42.805,6.029,0.067,-0.002,0.02,106.0,107.0,103.0,13.4,1505.2,327.3,-0.7,1.8,2470.121,13.28,0.067,91.7
2021-03-16T05:37:03,42.805,6.029,0.053,-0.017,-0.001,105.0,106.0,103.0,13.4,1505.2,327.1,-0.7,1.8,2470.082,13.28,0.055,107.8
2021-03-16T05:40:03,42.805,6.029,0.056,-0.032,-0.008,106.0,106.0,102.0,13.4,1505.2,327.2,-0.7,1.8,2470.086,13.28,0.064,119.7
2021-03-16T05:43:03,42.805,6.029,0.052,-0.045,0.0,105.0,106.0,103.0,13.3,1505.2,327.4,-0.8,1.8,2470.09,13.28,0.068,130.9
2021-03-16T05:46:03,42.805,6.029,0.054,-0.043,0.019,106.0,105.0,103.0,13.3,1505.2,327.0,-0.8,1.8,2470.042,13.28,0.069,128.5
2021-03-16T05:49:03,42.805,6.029,0.075,-0.038,0.012,105.0,106.0,103.0,13.4,1505.2,327.3,-0.8,1.8,2470.111,13.28,0.084,116.9
2021-03-16T05:52:03,42.805,6.029,0.065,-0.024,-0.004,106.0,106.0,103.0,13.4,1505.2,327.3,-0.7,1.8,2470.055,13.28,0.069,110.3
2021-03-16T05:55:03,42.805,6.029,0.035,-0.041,0.034,106.0,105.0,103.0,13.4,1505.2,327.4,-0.7,1.8,2470.022,13.28,0.053,139.5
2021-03-16T05:58:03,42.805,6.029,0.066,-0.037,0.002,106.0,106.0,103.0,13.3,1505.2,327.5,-0.7,1.8,2470.023,13.28,0.075,119.3
2021-03-16T06:04:03,42.805,6.029,0.054,-0.027,0.0,106.0,106.0,103.0,13.3,1505.2,327.4,-0.7,1.8,2470.024,13.28,0.06,116.6
2021-03-16T06:07:03,42.805,6.029,0.069,-0.011,0.034,106.0,107.0,103.0,13.4,1505.2,327.6,-0.8,1.8,2470.046,13.28,0.069,99.1
2021-03-16T06:10:03,42.805,6.029,0.047,-0.018,-0.01,107.0,105.0,103.0,13.3,1505.2,327.5,-0.8,1.8,2470.056,13.28,0.05,111.0
2021-03-16T06:13:03,42.805,6.029,0.07,-0.024,0.024,106.0,106.0,104.0,13.4,1505.2,327.2,-0.8,1.8,2470.096,13.28,0.073,108.9
2021-03-16T06:16:03,42.805,6.029,0.065,-0.037,0.015,106.0,105.0,103.0,13.4,1505.2,327.2,-0.8,1.8,2470.17,13.28,0.074,119.7
2021-03-16T06:19:03,42.805,6.029,0.053,-0.042,0.004,106.0,106.0,104.0,13.3,1505.2,327.5,-0.7,1.8,2470.186,13.28,0.067,128.4
2021-03-16T06:22:03,42.805,6.029,0.061,-0.035,0.019,106.0,106.0,104.0,13.4,1505.2,327.6,-0.7,1.8,2470.233,13.28,0.07,119.8
2021-03-16T06:25:03,42.805,6.029,0.056,-0.043,0.031,107.0,106.0,105.0,13.4,1505.2,327.5,-0.8,1.8,2470.247,13.28,0.07,127.5
2021-03-16T06:28:03,42.805,6.029,0.056,-0.032,0.033,106.0,106.0,103.0,13.3,1505.2,327.6,-0.7,1.8,2470.271,13.28,0.064,119.7
2021-03-16T06:31:03,42.805,6.029,0.039,-0.021,0.022,106.0,105.0,104.0,13.4,1505.2,327.0,-0.8,1.8,2470.286,13.28,0.044,118.3
2021-03-16T06:34:03,42.805,6.029,0.058,-0.039,0.018,105.0,106.0,103.0,13.3,1505.2,327.0,-0.7,1.8,2470.358,13.28,0.069,123.9
2021-03-16T06:37:03,42.805,6.029,0.061,-0.037,0.022,107.0,105.0,103.0,13.3,1505.2,327.4,-0.7,1.8,2470.354,13.28,0.071,121.2
2021-03-16T06:40:03,42.805,6.029,0.04,-0.028,0.011,106.0,106.0,103.0,13.4,1505.2,327.4,-0.7,1.8,2470.369,13.28,0.048,125.0
2021-03-16T06:43:03,42.805,6.029,0.056,-0.035,0.022,106.0,105.0,104.0,13.3,1505.2,327.2,-0.8,1.8,2471.335,13.28,0.066,122.0
2021-03-16T06:46:03,42.805,6.029,0.055,-0.015,0.043,106.0,105.0,103.0,13.4,1505.2,327.1,-0.8,1.8,2471.593,13.28,0.057,105.3
2021-03-16T06:49:03,42.805,6.029,0.041,-0.032,0.015,106.0,107.0,103.0,13.3,1505.2,327.0,-0.7,1.8,2471.898,13.28,0.052,128.0
2021-03-16T06:52:03,42.805,6.029,0.045,-0.048,0.002,105.0,106.0,104.0,13.4,1505.2,327.0,-0.8,1.8,2472.244,13.28,0.065,136.9
2021-03-16T06:55:03,42.805,6.029,0.06,-0.029,0.027,105.0,106.0,103.0,13.4,1505.2,327.7,-0.8,1.8,2472.487,13.28,0.066,115.8
2021-03-16T06:58:03,42.805,6.029,0.033,-0.029,0.018,106.0,106.0,103.0,13.4,1505.2,327.1,-0.8,1.8,2472.619,13.28,0.043,131.3
2021-03-16T07:04:03,42.805,6.029,0.05,-0.028,-0.011,106.0,106.0,103.0,13.4,1505.2,327.2,-0.8,1.8,2472.702,13.28,0.057,119.3
2021-03-16T07:07:03,42.805,6.029,0.033,-0.036,0.055,106.0,105.0,103.0,13.3,1505.2,327.5,-0.8,1.8,2472.628,13.28,0.048,137.5
2021-03-16T07:10:03,42.805,6.029,0.06,-0.043,0.005,106.0,105.0,103.0,13.3,1505.2,326.8,-0.8,1.8,2472.548,13.28,0.073,125.6
2021-03-16T07:13:03,42.805,6.029,0.029,-0.038,0.039,107.0,106.0,105.0,13.4,1505.2,327.4,-0.7,1.8,2472.588,13.28,0.047,142.7
2021-03-16T07:16:03,42.805,6.029,0.054,-0.025,0.013,108.0,107.0,103.0,13.3,1505.2,327.0,-0.8,1.8,2472.559,13.28,0.059,114.8
2021-03-16T07:19:03,42.805,6.029,0.036,-0.032,-0.004,107.0,106.0,103.0,13.4,1505.2,327.4,-0.7,1.8,2472.514,13.28,0.048,131.6
2021-03-16T07:22:03,42.805,6.029,0.028,-0.034,0.022,107.0,107.0,103.0,13.4,1505.2,327.3,-0.8,1.8,2472.394,13.28,0.044,140.5
2021-03-16T07:25:03,42.805,6.029,0.052,-0.027,0.002,105.0,106.0,104.0,13.4,1505.2,327.1,-0.8,1.8,2472.366,13.28,0.058,117.4
2021-03-16T07:28:03,42.805,6.029,0.062,-0.034,0.017,107.0,107.0,103.0,13.4,1505.2,327.4,-0.8,1.8,2472.247,13.28,0.07,118.7
2021-03-16T07:31:03,42.805,6.029,0.041,-0.026,0.025,107.0,105.0,103.0,13.4,1505.2,327.7,-0.7,1.8,2472.157,13.28,0.048,122.4
2021-03-16T07:34:03,42.805,6.029,0.04,-0.032,0.021,107.0,106.0,104.0,13.3,1505.2,326.8,-0.8,1.9,2472.054,13.28,0.051,128.7
2021-03-16T07:37:03,42.805,6.029,0.035,-0.02,0.016,107.0,106.0,104.0,13.4,1505.2,327.7,-0.7,1.8,2471.856,13.28,0.04,119.7
2021-03-16T07:40:03,42.805,6.029,0.042,-0.03,0.025,107.0,107.0,103.0,13.4,1505.2,327.0,-0.7,1.8,2471.618,13.28,0.051,125.5
2021-03-16T07:43:03,42.805,6.029,0.042,-0.026,-0.008,107.0,107.0,104.0,13.3,1505.2,327.1,-0.8,1.8,2471.573,13.28,0.049,121.8
2021-03-16T07:46:03,42.805,6.029,0.045,-0.055,0.012,107.0,108.0,104.0,13.4,1505.2,326.7,-0.8,1.8,2471.536,13.28,0.071,140.7
2021-03-16T07:49:03,42.805,6.029,0.054,-0.021,0.003,107.0,108.0,104.0,13.4,1505.2,326.7,-0.8,1.8,2471.489,13.28,0.057,111.2
2021-03-16T07:52:03,42.805,6.029,0.054,-0.036,-0.008,106.0,107.0,105.0,13.4,1505.2,327.4,-0.8,1.8,2471.454,13.28,0.064,123.7
2021-03-16T07:55:03,42.805,6.029,0.05,-0.031,0.015,107.0,105.0,104.0,13.4,1505.2,327.5,-0.7,1.8,2471.416,13.28,0.058,121.8
2021-03-16T07:58:03,42.805,6.029,0.052,-0.035,0.014,107.0,107.0,103.0,13.4,1505.2,327.3,-0.8,1.8,2471.323,13.28,0.062,123.9
2021-03-16T08:04:03,42.805,6.029,0.064,-0.021,0.01,105.0,106.0,104.0,13.3,1505.2,327.2,-0.7,1.8,2471.197,13.28,0.067,108.2
2021-03-16T08:07:03,42.805,6.029,0.03,-0.025,0.006,107.0,108.0,104.0,13.3,1505.2,327.3,-0.7,1.8,2471.138,13.28,0.039,129.8
2021-03-16T08:10:03,42.805,6.029,0.061,-0.049,0.013,105.0,107.0,104.0,13.4,1505.2,327.4,-0.8,1.8,2471.02,13.28,0.078,128.8
2021-03-16T08:13:03,42.805,6.029,0.071,-0.056,0.024,107.0,106.0,103.0,13.4,1505.2,327.8,-0.8,1.8,2470.969,13.28,0.09,128.3
2021-03-16T08:16:03,42.805,6.029,0.031,-0.032,0.009,107.0,106.0,104.0,13.4,1505.2,327.4,-0.8,1.8,2470.897,13.28,0.044,135.9
2021-03-16T08:19:03,42.805,6.029,0.068,-0.031,0.002,106.0,107.0,104.0,13.4,1505.2,327.5,-0.7,1.8,2470.853,13.28,0.074,114.5
2021-03-16T08:22:03,42.805,6.029,0.047,-0.031,0.025,107.0,107.0,105.0,13.4,1505.2,327.5,-0.8,1.8,2470.732,13.28,0.056,123.4
2021-03-16T08:25:03,42.805,6.029,0.065,-0.038,0.019,106.0,107.0,104.0,13.4,1505.2,327.1,-0.7,1.8,2470.523,13.28,0.075,120.3
2021-03-16T08:28:03,42.805,6.029,0.054,-0.008,0.014,108.0,107.0,103.0,13.4,1505.2,327.3,-0.8,1.8,2470.477,13.28,0.054,98.4
2021-03-16T08:31:03,42.805,6.029,0.048,-0.031,0.017,107.0,107.0,104.0,13.4,1505.2,327.5,-0.8,1.8,2470.53,13.28,0.057,122.9
2021-03-16T08:34:03,42.805,6.029,0.033,-0.007,0.015,106.0,107.0,104.0,13.3,1505.2,327.3,-0.8,1.8,2470.447,13.28,0.033,102.0
2021-03-16T08:37:03,42.805,6.029,0.046,-0.016,0.008,107.0,106.0,104.0,13.4,1505.2,326.8,-0.8,1.8,2470.254,13.28,0.048,109.2
2021-03-16T08:40:03,42.805,6.029,0.052,-0.019,0.002,107.0,109.0,103.0,13.4,1505.2,326.8,-0.8,1.8,2470.284,13.28,0.055,110.1
2021-03-16T08:43:03,42.805,6.029,0.05,-0.01,0.02,106.0,107.0,104.0,13.4,1505.2,327.4,-0.8,1.8,2470.383,13.28,0.05,101.3
2021-03-16T08:46:03,42.805,6.029,0.036,-0.035,0.001,106.0,107.0,104.0,13.3,1505.2,327.2,-0.7,1.8,2470.419,13.28,0.05,134.2
2021-03-16T08:49:03,42.805,6.029,0.055,-0.01,-0.003,107.0,108.0,104.0,13.3,1505.2,326.8,-0.7,1.8,2470.48,13.28,0.055,100.3
2021-03-16T08:52:03,42.805,6.029,0.047,-0.033,-0.018,107.0,106.0,104.0,13.4,1505.2,327.3,-0.7,1.8,2470.579,13.28,0.057,125.1
2021-03-16T08:55:03,42.805,6.029,0.057,-0.016,0.021,107.0,107.0,103.0,13.4,1505.2,326.7,-0.8,1.8,2470.628,13.28,0.059,105.7
2021-03-16T08:58:03,42.805,6.029,0.044,-0.027,0.01,105.0,107.0,106.0,13.3,1505.2,327.5,-0.7,1.8,2470.611,13.28,0.051,121.5
2021-03-16T09:04:03,42.805,6.029,0.046,-0.011,0.007,108.0,109.0,104.0,13.4,1505.2,327.5,-0.7,1.8,2470.504,13.28,0.047,103.4
2021-03-16T09:07:03,42.805,6.029,0.049,-0.021,0.013,107.0,108.0,103.0,13.4,1505.2,327.0,-0.7,1.8,2470.454,13.28,0.053,113.2
2021-03-16T09:10:03,42.805,6.029,0.052,-0.039,-0.002,107.0,109.0,105.0,13.4,1505.2,327.0,-0.8,1.8,2470.494,13.28,0.064,126.9
2021-03-16T09:13:03,42.805,6.029,0.03,-0.017,0.052,106.0,107.0,104.0,13.4,1505.2,327.1,-0.7,1.8,2470.441,13.28,0.034,119.5
2021-03-16T09:16:03,42.805,6.029,0.042,-0.011,0.012,107.0,107.0,104.0,13.4,1505.2,327.2,-0.7,1.9,2470.406,13.28,0.043,104.7
2021-03-16T09:19:03,42.805,6.029,0.055,-0.019,-0.002,106.0,107.0,104.0,13.4,1505.2,327.3,-0.8,1.8,2470.382,13.28,0.058,109.1
2021-03-16T09:22:03,42.805,6.029,0.045,-0.026,0.0,106.0,108.0,104.0,13.3,1505.2,327.2,-0.8,1.9,2470.388,13.28,0.051,120.0
2021-03-16T09:25:03,42.805,6.029,0.059,-0.01,-0.027,109.0,108.0,103.0,13.3,1505.2,327.0,-0.7,1.8,2470.266,13.28,0.059,99.6
2021-03-16T09:28:03,42.805,6.029,0.047,-0.028,0.023,106.0,108.0,104.0,13.3,1505.2,327.5,-0.7,1.8,2470.149,13.28,0.054,120.8
2021-03-16T09:31:03,42.805,6.029,0.056,-0.026,0.046,106.0,106.0,105.0,13.4,1505.2,327.2,-0.8,1.8,2470.175,13.28,0.061,114.9
2021-03-16T09:34:03,42.805,6.029,0.041,-0.032,0.005,106.0,107.0,104.0,13.4,1505.2,327.1,-0.8,1.8,2470.196,13.28,0.052,128.0
2021-03-16T09:37:03,42.805,6.029,0.043,-0.016,0.025,107.0,106.0,103.0,13.4,1505.2,327.4,-0.8,1.8,2470.076,13.28,0.045,110.4
2021-03-16T09:40:03,42.805,6.029,0.052,-0.009,0.039,105.0,107.0,103.0,13.3,1505.2,326.7,-0.8,1.8,2470.076,13.28,0.052,99.8
2021-03-16T09:43:03,42.805,6.029,0.034,-0.033,-0.025,106.0,109.0,103.0,13.3,1505.2,327.0,-0.7,1.8,2470.165,13.28,0.047,134.1
2021-03-16T09:46:03,42.805,6.029,0.029,-0.014,0.013,106.0,108.0,105.0,13.4,1505.2,327.3,-0.7,1.8,2470.093,13.28,0.032,115.8
2021-03-16T09:49:03,42.805,6.029,0.051,-0.015,0.002,107.0,108.0,104.0,13.4,1505.2,327.1,-0.7,1.8,2470.05,13.28,0.053,106.4
2021-03-16T09:52:03,42.805,6.029,0.052,-0.03,0.0,106.0,106.0,103.0,13.3,1505.2,327.5,-0.8,1.9,2470.037,13.28,0.06,120.0
2021-03-16T09:55:03,42.805,6.029,0.073,-0.019,-0.005,106.0,107.0,103.0,13.3,1505.2,326.8,-0.8,1.8,2469.982,13.28,0.075,104.6
2021-03-16T09:58:03,42.805,6.029,0.061,-0.018,-0.009,108.0,108.0,106.0,13.4,1505.2,327.1,-0.7,1.8,2470.008,13.28,0.063,106.4